Tracking 29892 objects as of 21-Nov-2024
HD Live streaming from Space Station
objects crossing your sky now

SL-19 DEB

Track SL-19 DEB now!
10-day predictions


NORAD ID: 23482
Int'l Code: 1994-085E
Perigee: 1,679.8 km
Apogee: 2,354.3 km
Inclination: 64.7 °
Period: 127.4 minutes
Semi major axis: 8388 km
RCS: 0.2163 m2 (medium)
Launch date: December 26, 1994
Source: Commonwealth of Independent States (former USSR) (CIS)
Launch site: TYURATAM MISSILE AND SPACE COMPLEX (TTMTR)

Note: This is SATELLITE DEBRIS
Your satellite tracking list
Your tracking list is empty




NASA's NSSDC Master Catalog

Two Line Element Set (TLE):
1 23482U 94085E   24324.37832829  .00001126  00000-0  27693-1 0  9990
2 23482  64.6952  97.0639 0402051 276.0848  90.7164 11.30088925231464
Source of the keplerian elements: AFSPC